This demonstration page uses our WeatherBlox Daily Observations layout. Learn more.

Left ArrowRight Arrow

Hourly Observations for September 13, 2015

Temp ( °F °C ) Dew Point ( °F °C ) Humidity (%) Winds ( mph kmh ) Pressure ( in mb ) Visibility ( mi km ) Precip ( " mm )
12:59 am 00:59 Mostly Cloudy 70 21.1 67 19.4 90 90 WSW 8 13 29.74 1007 8 13 0.02 0.51
1:59 am 01:59 Mostly Cloudy 69 20.6 66 18.9 90 90 SW 5 7 29.74 1007 8 13 0.00 0.00
2:59 am 02:59 Mostly Cloudy 69 20.6 66 18.9 90 90 SSW 3 6 29.75 1007 8 13 0.00 0.00
3:59 am 03:59 Mostly Cloudy 69 20.6 66 18.9 90 90 SW 6 9 29.74 1007 8 13 0.00 0.00
4:59 am 04:59 Mostly Cloudy 69 20.6 66 18.9 90 90 WSW 5 7 29.72 1007 9 14 0.00 0.00
5:59 am 05:59 Mostly Cloudy 70 21.1 66 18.9 87 87 WNW 8 13 29.73 1007 9 14 0.00 0.00
6:59 am 06:59 Mostly Cloudy 70 21.1 67 19.4 90 90 NNW 7 11 29.75 1007 7 11 0.00 0.00
7:59 am 07:59 Mostly Cloudy 71 21.7 64 17.8 79 79 N 12 19 29.77 1008 9 14 0.00 0.00
8:59 am 08:59 Mostly Cloudy 70 21.1 61 16.1 73 73 N 12 19 29.78 1008 10 16 0.00 0.00
9:59 am 09:59 Mostly Cloudy 72 22.2 62 16.7 71 71 NNE 10 17 29.80 1009 10 16 0.00 0.00
10:59 am 10:59 Cloudy 71 21.7 59 15 66 66 NNW 14 22 29.81 1010 10 16 0.00 0.00
11:59 am 11:59 Mostly Cloudy 72 22.2 58 14.4 61 61 NNW 12 19 29.83 1010 10 16 0.00 0.00
12:59 pm 12:59 Mostly Cloudy 72 22.2 58 14.4 61 61 NW 15 24 29.84 1011 10 16 0.00 0.00
1:59 pm 13:59 Mostly Cloudy 75 23.9 58 14.4 55 55 NW 15 24 29.85 1011 10 16 0.00 0.00
2:59 pm 14:59 Partly Cloudy 75 23.9 56 13.3 52 52 NNW 7 11 29.86 1011 10 16 0.00 0.00
3:59 pm 15:59 Partly Cloudy 74 23.3 57 13.9 56 56 NW 12 19 29.86 1011 10 16 0.00 0.00
4:59 pm 16:59 Mostly Cloudy 75 23.9 57 13.9 54 54 W 12 19 29.86 1011 10 16 0.00 0.00
5:59 pm 17:59 Sunny 75 23.9 51 10.6 43 43 WNW 15 24 29.87 1012 10 16 0.00 0.00
6:59 pm 18:59 Partly Cloudy 71 21.7 54 12.2 55 55 NNW 16 26 29.91 1013 10 16 0.00 0.00
7:59 pm 19:59 Mostly Clear 69 20.6 53 11.7 57 57 NW 12 19 29.94 1014 10 16 0.00 0.00
8:59 pm 20:59 Mostly Clear 69 20.6 52 11.1 55 55 NW 14 22 29.98 1015 10 16 0.00 0.00
9:59 pm 21:59 Mostly Clear 68 20 52 11.1 57 57 NW 12 19 30.01 1016 10 16 0.00 0.00
10:59 pm 22:59 Mostly Clear 67 19.4 53 11.7 61 61 NNW 12 19 30.03 1017 10 16 0.00 0.00
11:59 pm 23:59 Clear 66 18.9 52 11.1 61 61 NNW 8 13 30.04 1017 10 16 0.00 0.00

Powered by AerisWeather